Location: Unspecified
(0.0000°N, 0.0000°E)
Time: 09:53:35
(UTC+00:00)

Vanguard 3 - Pass Details

Date: 10 October 2022
Orbit: 509 x 3255 km, 33.3° (Epoch: 29 November)

Event Time Altitude Azimuth Distance (km) Brightness Sun altitude
Rises 20:47:46 0° 228° (SW) 7,207 12.6 -44.8°
Reaches altitude 10° 20:55:54 10° 210° (SSW) 6,155 11.9 -46.8°
Maximum altitude 21:06:55 17° 175° (S) 5,144 11.1 -49.5°
Enters shadow 21:10:57 16° 159° (SSE) 5,016 11.0 -50.5°
